Location: Unspecified
(44.0704°N, 88.6889°W)
Time: 10:39:14
(UTC+02:00)

Vanguard 2 Rocket - Pass Details

Date: 12 August 2020
Orbit: 554 x 3326 km, 32.9° (Epoch: 22 September)

Event Time Altitude Azimuth Distance (km) Brightness Sun altitude
Rises 04:14:11 0° 261° (W) 4,066 11.0 -11.9°
Reaches altitude 10° 04:16:39 10° 254° (WSW) 3,387 10.4 -12.2°
Maximum altitude 04:25:00 43° 186° (S) 2,520 8.9 -13.5°
Enters shadow 04:35:26 18° 128° (SE) 4,658 9.8 -14.9°
